Flag for Albania Weather past 2 weeks in Tirana, Albania

50 °F


Feels Like: 48 °F
Forecast: 41 / 59 °F
Wind: 5 mph from Southeast

Location: Tirana Airport

Current Time: Nov 28, 2015 at 5:50:46 PM

Latest Report: Nov 28, 2015 at 5:20 PM

Visibility: N/A

Pressure: 29.92 "Hg

Humidity: 88%

Dew point: 46 °F

Location of TiranaLocation

Historic Weather in Tirana — Graph


Tirana temperature yesterday

Maximum temperature yesterday: 52 °F (at 12:50 AM)
Minimum temperature yesterday: 46 °F (at 6:20 AM)
Average temperature yesterday: 50 °F

Past Weeks' High & Low Weather Summary

High73 °F (Nov 17, 1:50 PM)100% (Nov 14, 8:20 AM)30.33 "Hg (Nov 14, 8:20 AM)
Low43 °F (Nov 16, 5:20 AM)41% (Nov 17, 2:20 PM)29.45 "Hg (Nov 21, 11:20 PM)
Average56 °F80%29.93 "Hg
* Reported Nov 13 4:20 PM — Nov 28 4:20 PM, Tirana, Weather by CustomWeather, © 2015

Note: Actual official high and low records may vary slightly from our data, if they occured in-between our weather recording intervals... More about our weather records


Tirana weather history for previous 24 hours

Time TempWeatherWind HumidityBarometerVisibility
4:20 PM
Sat, Nov 28
50 °FLight rain. Mostly cloudy.3 mph88%29.92 "HgN/A
3:50 PM50 °FRain. Mostly cloudy.5 mph82%29.89 "Hg4 mi
3:20 PM52 °FBroken clouds.2 mph77%29.89 "HgN/A
2:50 PM54 °FBroken clouds.6 mph72%29.86 "HgN/A
2:20 PM54 °FBroken clouds.7 mph67%29.86 "HgN/A
1:50 PM52 °FBroken clouds.5 mph82%29.86 "HgN/A
1:20 PM52 °FCloudy.5 mph82%29.86 "HgN/A
12:50 PM52 °FLight rain. Cloudy.9 mph77%29.83 "HgN/A
12:20 PM52 °FLight rain. More clouds than sun.6 mph88%29.83 "HgN/A
11:50 AM52 °FLight rain. More clouds than sun.3 mph88%29.83 "HgN/A
11:20 AM52 °FLight rain. More clouds than sun.3 mph88%29.83 "HgN/A
10:50 AM52 °FLight rain. More clouds than sun.No wind82%29.83 "HgN/A
10:20 AM52 °FLight rain. More clouds than sun.2 mph82%29.83 "HgN/A
9:50 AM50 °FDrizzle. More clouds than sun.No wind82%29.80 "HgN/A
9:20 AM50 °FLight rain. More clouds than sun.No wind82%29.80 "HgN/A
8:50 AM48 °FLight rain. More clouds than sun.2 mph82%29.77 "HgN/A
7:20 AM46 °FMore clouds than sun.No wind87%29.74 "HgN/A
6:50 AM46 °FMore clouds than sun.2 mph82%29.71 "HgN/A
6:20 AM46 °FPassing clouds.2 mph82%29.71 "HgN/A
5:50 AM46 °FPartly cloudy.3 mph82%29.68 "HgN/A
5:20 AM45 °FPartly cloudy.2 mph93%29.68 "HgN/A
4:50 AM46 °FPartly cloudy.3 mph87%29.68 "HgN/A
4:20 AM46 °FLight rain. Partly cloudy.2 mph87%29.68 "HgN/A
3:50 AM46 °FLight rain. Passing clouds.2 mph82%29.68 "HgN/A
3:20 AM46 °FLight rain. Overcast.5 mph87%29.68 "HgN/A
2:50 AM48 °FLight rain. Overcast.6 mph76%29.65 "HgN/A
2:20 AM48 °FOvercast.3 mph87%29.65 "HgN/A
12:50 AM48 °FOvercast.2 mph87%29.65 "HgN/A
11:50 PM
Fri, Nov 27
48 °FPassing clouds.3 mph87%29.62 "HgN/A
11:20 PM46 °FPassing clouds.2 mph93%29.62 "HgN/A
10:50 PM48 °FPartly cloudy.1 mph82%29.62 "HgN/A
9:50 PM46 °FLight rain. Partly cloudy.2 mph82%29.62 "HgN/A
9:20 PM48 °FLight rain. Partly cloudy.5 mph76%29.62 "HgN/A
8:50 PM46 °FPartly cloudy.5 mph82%29.62 "HgN/A
8:20 PM48 °FPassing clouds.6 mph82%29.62 "HgN/A
7:50 PM48 °FPassing clouds.2 mph87%29.62 "HgN/A
7:20 PM48 °FPartly cloudy.3 mph87%29.59 "HgN/A
6:20 PM52 °FPartly cloudy.6 mph72%29.59 "HgN/A
5:50 PM52 °FPartly cloudy.7 mph72%29.56 "HgN/A
5:20 PM48 °FLight rain. Mostly cloudy.2 mph87%29.59 "HgN/A
Weather by CustomWeather, © 2015

See weather overviewHow to use our weather pages